Terug naar catalogus

SL-8 DEB *

ActiefLEO
NORAD 3745·DEBRIS·🇷🇺 Russia

Gelanceerd Mar 15, 1965 vanaf Baikonur Cosmodrome

Loading…

Volgende Passages (komende 24 uur)

TLE

VersSource: Space-Track

Epoch: Sep 14, 2026, 03:03 UTC

1 03745U 65020ET  26257.12771990 -.00000017  00000-0  48859-3 0  9996
2 03745  56.0163 154.6720 0169921  77.0421  67.4060 12.51041748652117

Volg SL-8 DEB * in realtime met AllMySat

Download on the App Store